Home > Weather > Talkeetna > Past weeks

Flag for USA Weather for the Past 2 Weeks in Talkeetna, Alaska, USA

Now
33 °F

Overcast.


Feels Like: 33 °F
Forecast: 30 / 52 °F
Wind: No wind

Location: Talkeetna Weather Reporting Station

Current Time: May 2, 2016 at 4:59:58 AM

Latest Report: May 2, 2016 at 3:53 AM


Visibility: 10 mi

Pressure: 29.67 "Hg

Humidity: 92%

Dew Point: 31 °F

Location of TalkeetnaLocation

Historic Weather in Talkeetna — Graph

°F

Talkeetna Temperature Yesterday

Maximum temperature yesterday: 56 °F (at 12:53 PM)
Minimum temperature yesterday: 35 °F (at 1:53 AM)
Average temperature yesterday: 46 °F

High & Low Weather Summary for the Past Weeks

 TemperatureHumidityPressure
High63 °F (Apr 23, 3:53 PM)97% (Apr 27, 6:53 AM)30.11 "Hg (Apr 27, 6:53 AM)
Low27 °F (Apr 18, 5:53 AM)20% (Apr 21, 6:53 PM)29.41 "Hg (Apr 30, 6:53 PM)
Average46 °F55%29.77 "Hg
* Reported Apr 17 3:53 AM — May 2 3:53 AM, Talkeetna, Weather by CustomWeather, © 2016

Note: Actual official high and low records may vary slightly from our data, if they occured in-between our weather recording intervals... More about our weather records

Advertising

Talkeetna Weather History for the Previous 24 Hours

Scroll right to see more
 ConditionsComfort  
Time TempWeatherWind HumidityBarometerVisibility
3:53 AM
Mon, May 2
33 °FOvercast.No wind92%29.67 "Hg10 mi
2:53 AM36 °FPassing clouds.No wind89%29.68 "Hg10 mi
1:53 AM39 °FPassing clouds.No wind86%29.69 "Hg10 mi
12:53 AM40 °FOvercast.No wind83%29.71 "Hg10 mi
11:53 PM
Sun, May 1
43 °FOvercast.No wind74%29.71 "Hg10 mi
10:53 PM45 °FOvercast.No wind71%29.71 "Hg10 mi
9:53 PM47 °FOvercast.3 mph64%29.71 "Hg10 mi
8:53 PM49 °FPartly sunny.6 mph57%29.71 "Hg10 mi
7:53 PM51 °FSunny.7 mph52%29.70 "Hg10 mi
6:53 PM52 °FMostly cloudy.No wind50%29.70 "Hg10 mi
5:53 PM52 °FScattered clouds.8 mph50%29.70 "Hg10 mi
4:53 PM54 °FMostly cloudy.7 mph49%29.68 "Hg10 mi
3:53 PM52 °FPartly sunny.5 mph64%29.68 "Hg10 mi
2:53 PM55 °FMostly cloudy.12 mph37%29.67 "Hg10 mi
1:53 PM56 °FMostly cloudy.3 mph33%29.65 "Hg10 mi
12:53 PM56 °FOvercast.No wind34%29.65 "Hg10 mi
11:53 AM54 °FPartly sunny.7 mph37%29.63 "Hg10 mi
10:53 AM52 °FPartly sunny.6 mph41%29.64 "Hg10 mi
9:53 AM47 °FBroken clouds.No wind52%29.63 "Hg10 mi
8:53 AM45 °FPassing clouds.No wind56%29.62 "Hg10 mi
7:53 AM39 °FMostly cloudy.No wind73%29.62 "Hg10 mi
6:53 AM38 °FMostly cloudy.No wind76%29.59 "Hg10 mi
5:53 AM37 °FOvercast.No wind76%29.57 "Hg10 mi
4:53 AM37 °FOvercast.3 mph76%29.56 "Hg10 mi
Weather by CustomWeather, © 2016

See weather overviewHow to use our weather pages